GW1618 Weather Reports


Display with metric or nautical units.
time (UTC)temp
F
wind
direction
speed
MPH
gust
MPH
rain 1hr
in
rain 24hr
in
rain mn
in
humidity
%
barometer
mb
20260831053906 63 346 3.0 4.0 0.00 0.00 0.00 68 1016.1
20260831053410 63 341 3.0 5.0 0.00 0.00 0.00 68 1016.1
20260831052909 63 345 3.0 5.0 0.00 0.00 0.00 69 1016.1
20260831052402 63 9 3.0 5.0 0.00 0.00 0.00 69 1016.3
20260831051904 63 9 2.0 5.0 0.00 0.00 0.00 68 1016.3
20260831051711 63 23 3.0 5.0 0.00 0.00 0.00 69 1016.3
20260831050902 63 26 3.0 6.0 0.00 0.00 0.00 70 1016.3
20260831050407 63 9 4.0 6.0 0.00 0.00 0.00 69 1016.3
20260831045914 63 9 3.0 5.0 0.00 0.00 0.00 68 1016.3
20260831045409 63 9 3.0 5.0 0.00 0.00 0.00 69 1016.4
20260831044854 63 15 2.0 4.0 0.00 0.00 0.00 66 1016.4
20260831044353 63 35 2.0 4.0 0.00 0.00 0.00 65 1016.4
20260831043848 63 9 3.0 4.0 0.00 0.00 0.00 63 1016.5
20260831043656 63 344 3.0 4.0 0.00 0.00 0.00 65 1016.5
20260831042834 63 354 2.0 4.0 0.00 0.00 0.00 65 1016.5
20260831042358 64 359 2.0 4.0 0.00 0.00 0.00 64 1016.5
20260831041310 64 38 1.0 4.0 0.00 0.00 0.00 64 1016.5
20260831041110 64 65 1.0 3.0 0.00 0.00 0.00 64 1016.5
20260831040304 64 19 1.0 2.0 0.00 0.00 0.00 62 1016.5
20260831040115 64 19 1.0 3.0 0.00 0.00 0.00 60 1016.5
20260831035306 65 22 1.0 3.0 0.00 0.00 0.00 58 1016.2
20260831035110 65 359 1.0 2.0 0.00 0.00 0.00 57 1016.2
20260831034303 65 346 2.0 3.0 0.00 0.00 0.00 54 1016.2
20260831033803 66 346 2.0 4.0 0.00 0.00 0.00 54 1016.1
20260831033304 66 350 2.0 4.0 0.00 0.00 0.00 55 1016.1
20260831032758 66 342 2.0 3.0 0.00 0.00 0.00 54 1016.1
20260831032301 66 13 2.0 3.0 0.00 0.00 0.00 54 1016.0
20260831031749 67 359 2.0 4.0 0.00 0.00 0.00 53 1016.0
20260831031250 67 359 2.0 4.0 0.00 0.00 0.00 53 1016.0
20260831030738 68 346 2.0 5.0 0.00 0.00 0.00 51 1016.0
20260831030243 68 53 2.0 5.0 0.00 0.00 0.00 47 1016.0
20260831025738 68 57 2.0 4.0 0.00 0.00 0.00 47 1016.0
20260831025239 68 58 2.0 4.0 0.00 0.00 0.00 47 1016.1
20260831025029 69 71 3.0 5.0 0.00 0.00 0.00 47 1016.1
20260831024536 69 64 3.0 6.0 0.00 0.00 0.00 47 1016.1
20260831023733 69 76 4.0 6.0 0.00 0.00 0.00 46 1016.3
20260831023232 69 86 4.0 8.0 0.00 0.00 0.00 45 1016.3
20260831022730 69 104 4.0 8.0 0.00 0.00 0.00 45 1016.3
20260831022218 70 88 4.0 7.0 0.00 0.00 0.00 44 1016.5
20260831021716 70 76 4.0 7.0 0.00 0.00 0.00 44 1016.5
20260831021209 70 80 4.0 7.0 0.00 0.00 0.00 44 1016.5
20260831021016 70 60 4.0 7.0 0.00 0.00 0.00 44 1016.5
20260831020213 70 81 5.0 10.0 0.00 0.00 0.00 43 1016.5
20260831015715 70 69 5.0 10.0 0.00 0.00 0.00 43 1016.5
20260831015210 70 54 5.0 9.0 0.00 0.00 0.00 43 1016.5
20260831015011 70 55 4.0 9.0 0.00 0.00 0.00 44 1016.5
20260831014207 70 98 4.0 7.0 0.00 0.00 0.00 44 1016.5
20260831013706 70 21 4.0 7.0 0.00 0.00 0.00 48 1016.5
20260831013206 70 20 4.0 7.0 0.00 0.00 0.00 48 1016.5
20260831012706 69 9 4.0 6.0 0.00 0.00 0.00 48 1016.5
20260831012210 69 359 5.0 7.0 0.00 0.00 0.00 49 1016.6
20260831011707 69 347 5.0 7.0 0.00 0.00 0.00 51 1016.6
20260831011204 69 352 4.0 6.0 0.00 0.00 0.00 53 1016.6
20260831010706 69 4 5.0 7.0 0.00 0.00 0.00 49 1016.7
20260831010201 69 359 5.0 7.0 0.00 0.00 0.00 49 1016.7
20260831010030 69 9 5.0 6.0 0.00 0.00 0.00 49 1016.7
20260831005203 69 359 5.0 6.0 0.00 0.00 0.00 47 1016.9
20260831004700 69 15 6.0 9.0 0.00 0.00 0.00 47 1016.9
20260831004157 69 9 6.0 9.0 0.00 0.00 0.00 47 1016.9
20260831003647 69 17 5.0 8.0 0.00 0.00 0.00 47 1017.0
20260831003445 70 313 6.0 7.0 0.00 0.00 0.00 49 1017.0
20260831002632 70 17 6.0 7.0 0.00 0.00 0.00 45 1017.1
20260831002131 70 4 5.0 7.0 0.00 0.00 0.00 47 1017.1
20260831001623 70 9 4.0 7.0 0.00 0.00 0.00 47 1017.1
20260831001120 70 351 3.0 6.0 0.00 0.00 0.00 49 1017.2
20260831000605 70 337 3.0 4.0 0.00 0.00 0.00 46 1017.2
20260831000105 70 338 3.0 6.0 0.00 0.00 0.00 48 1017.2
20260830235559 69 4 4.0 6.0 0.00 0.00 0.00 49 1017.4
20260830235054 69 9 5.0 7.0 0.00 0.00 0.00 51 1017.4
20260830234901 68 15 6.0 7.0 0.00 0.00 0.00 48 1017.4
20260830234353 68 13 6.0 7.0 0.00 0.00 0.00 51 1017.5
20260830233546 68 23 5.0 7.0 0.00 0.00 0.00 47 1017.5
20260830233043 69 27 5.0 6.0 0.00 0.00 0.00 48 1017.5
20260830232541 69 359 5.0 7.0 0.00 0.00 0.00 50 1017.6
20260830232335 69 21 5.0 7.0 0.00 0.00 0.00 53 1017.6
20260830231837 69 9 6.0 7.0 0.00 0.00 0.00 49 1017.6
20260830231038 68 19 6.0 9.0 0.00 0.00 0.00 48 1017.6
20260830230902 68 17 6.0 9.0 0.00 0.00 0.00 51 1017.6
20260830230042 68 28 7.0 10.0 0.00 0.00 0.00 50 1017.6
20260830225841 68 28 8.0 10.0 0.00 0.00 0.00 55 1017.9
20260830225038 67 9 8.0 10.0 0.00 0.00 0.00 51 1017.9
20260830224536 67 16 8.0 10.0 0.00 0.00 0.00 51 1017.9
20260830224037 67 17 7.0 10.0 0.00 0.00 0.00 54 1018.1
20260830223630 68 21 6.0 9.0 0.00 0.00 0.00 55 1018.1
20260830222532 67 339 6.0 9.0 0.00 0.00 0.00 57 1018.1
20260830222033 67 18 7.0 9.0 0.00 0.00 0.00 53 1018.1
20260830221530 67 14 8.0 10.0 0.00 0.00 0.00 52 1018.1
20260830221337 67 9 9.0 11.0 0.00 0.00 0.00 51 1018.2
20260830220528 66 9 10.0 11.0 0.00 0.00 0.00 52 1018.2
20260830220017 66 15 9.0 12.0 0.00 0.00 0.00 51 1018.2
20260830215516 67 14 8.0 12.0 0.00 0.00 0.00 56 1018.6
20260830215015 67 9 9.0 11.0 0.00 0.00 0.00 56 1018.6
20260830214823 66 13 10.0 15.0 0.00 0.00 0.00 54 1018.6
20260830214253 66 28 10.0 15.0 0.00 0.00 0.00 55 1018.7
20260830213606 66 359 10.0 13.0 0.00 0.00 0.00 56 1018.7
20260830212513 66 4 9.0 11.0 0.00 0.00 0.00 61 1018.8
20260830212011 66 9 9.0 11.0 0.00 0.00 0.00 57 1018.8
20260830211513 66 9 8.0 11.0 0.00 0.00 0.00 58 1018.8
20260830211012 66 9 6.0 11.0 0.00 0.00 0.00 58 1018.7
20260830210509 67 359 4.0 9.0 0.00 0.00 0.00 57 1018.7
20260830205005 67 21 4.0 9.0 0.00 0.00 0.00 57 1018.8
20260830204506 66 317 4.0 9.0 0.00 0.00 0.00 54 1018.8
20260830204012 66 323 4.0 7.0 0.00 0.00 0.00 59 1019.1
20260830203507 66 353 5.0 7.0 0.00 0.00 0.00 61 1019.1
20260830203006 66 342 4.0 6.0 0.00 0.00 0.00 59 1019.1
20260830202820 65 13 5.0 7.0 0.00 0.00 0.00 61 1019.1
20260830202337 65 9 5.0 7.0 0.00 0.00 0.00 62 1019.1
20260830201817 64 13 6.0 7.0 0.00 0.00 0.00 60 1019.1
20260830201009 64 9 6.0 8.0 0.00 0.00 0.00 62 1019.1
20260830200457 64 13 6.0 10.0 0.00 0.00 0.00 63 1019.1
20260830195948 64 32 6.0 10.0 0.00 0.00 0.00 65 1019.1
20260830195742 63 16 6.0 10.0 0.00 0.00 0.00 68 1019.2
20260830194944 63 4 7.0 11.0 0.00 0.00 0.00 67 1019.2
20260830194448 62 344 9.0 11.0 0.00 0.00 0.00 68 1019.2
20260830193939 62 9 9.0 11.0 0.00 0.00 0.00 67 1019.5
20260830193439 62 16 9.0 12.0 0.00 0.00 0.00 68 1019.5
20260830192937 62 26 10.0 12.0 0.00 0.00 0.00 67 1019.5
20260830192436 62 17 10.0 14.0 0.00 0.00 0.00 70 1019.6
20260830191935 62 9 10.0 14.0 0.00 0.00 0.00 71 1019.6
20260830191438 62 9 8.0 13.0 0.00 0.00 0.00 71 1019.6
20260830190938 62 359 7.0 11.0 0.00 0.00 0.00 70 1019.6
20260830190438 62 9 8.0 11.0 0.00 0.00 0.00 72 1019.6
20260830185936 62 352 9.0 11.0 0.00 0.00 0.00 71 1019.6
20260830185437 61 38 8.0 12.0 0.00 0.00 0.00 71 1019.6
20260830185247 61 352 7.0 12.0 0.00 0.00 0.00 71 1019.6
20260830184433 61 350 6.0 10.0 0.00 0.00 0.00 70 1019.6
20260830183932 62 9 5.0 10.0 0.00 0.00 0.00 71 1019.6
20260830183431 62 344 5.0 8.0 0.00 0.00 0.00 69 1019.6
20260830182932 62 345 5.0 8.0 0.00 0.00 0.00 71 1019.6
20260830182426 62 354 4.0 8.0 0.00 0.00 0.00 69 1019.6
20260830181922 62 102 3.0 8.0 0.00 0.00 0.00 71 1019.6
20260830181410 62 359 4.0 8.0 0.00 0.00 0.00 69 1019.6
20260830180906 61 46 4.0 8.0 0.00 0.00 0.00 72 1019.6
20260830180404 61 71 4.0 6.0 0.00 0.00 0.00 72 1019.6
20260830175900 61 9 4.0 6.0 0.00 0.00 0.00 72 1019.6
20260830175352 61 348 4.0 6.0 0.00 0.00 0.00 71 1019.7
20260830174952 62 335 3.0 6.0 0.00 0.00 0.00 70 1019.7
20260830173849 62 359 2.0 4.0 0.00 0.00 0.00 69 1019.6
20260830173648 62 230 2.0 4.0 0.00 0.00 0.00 68 1019.6
20260830173142 62 146 2.0 4.0 0.00 0.00 0.00 68 1019.6
20260830172338 62 187 1.0 4.0 0.00 0.00 0.00 68 1019.6
20260830171835 62 122 1.0 3.0 0.00 0.00 0.00 69 1019.6
20260830171335 61 165 2.0 4.0 0.00 0.00 0.00 70 1019.6
20260830170831 60 4 1.0 4.0 0.00 0.00 0.00 72 1019.7
20260830170329 60 193 1.0 3.0 0.00 0.00 0.00 73 1019.7
20260830165830 60 270 1.0 3.0 0.00 0.00 0.00 74 1019.7
20260830165329 59 261 2.0 5.0 0.00 0.00 0.00 75 1019.6
20260830164829 59 227 1.0 5.0 0.00 0.00 0.00 74 1019.6
20260830164555 59 219 1.0 3.0 0.00 0.00 0.00 75 1019.6
20260830164332 59 219 1.0 3.0 0.00 0.00 0.00 75 1019.6
20260830163828 58 147 1.0 3.0 0.00 0.00 0.00 76 1019.7
20260830163330 58 173 1.0 2.0 0.00 0.00 0.00 77 1019.7
20260830162829 57 270 1.0 3.0 0.00 0.00 0.00 79 1019.7
20260830162330 57 219 2.0 3.0 0.00 0.00 0.00 79 1019.7
20260830161830 57 242 2.0 4.0 0.00 0.00 0.00 80 1019.7
20260830161336 57 222 2.0 4.0 0.00 0.00 0.00 80 1019.7
20260830160828 56 246 2.0 4.0 0.00 0.00 0.00 81 1019.8
20260830160416 56 234 2.0 4.0 0.00 0.00 0.00 81 1019.8
20260830155307 56 233 2.0 5.0 0.00 0.00 0.00 81 1020.0
20260830154805 56 231 2.0 4.0 0.00 0.00 0.00 82 1020.0
20260830154607 56 242 3.0 5.0 0.00 0.00 0.00 83 1020.0
20260830153805 56 212 3.0 5.0 0.00 0.00 0.00 83 1020.0
20260830153301 56 220 3.0 5.0 0.00 0.00 0.00 84 1020.0
20260830152801 56 228 2.0 4.0 0.00 0.00 0.00 84 1020.0
20260830152305 55 248 3.0 4.0 0.00 0.00 0.00 84 1019.8
20260830151802 55 215 3.0 4.0 0.00 0.00 0.00 84 1019.8
20260830151305 55 217 2.0 4.0 0.00 0.00 0.00 84 1019.8
20260830150805 55 219 3.0 5.0 0.00 0.00 0.00 85 1019.7
20260830150308 55 184 3.0 5.0 0.00 0.00 0.00 85 1019.7
20260830150122 55 217 1.0 5.0 0.00 0.00 0.00 85 1019.7
20260830145348 55 198 1.0 3.0 0.00 0.00 0.00 85 1019.7
20260830144303 55 228 1.0 3.0 0.00 0.00 0.00 86 1019.7
20260830143801 54 217 2.0 4.0 0.00 0.00 0.00 86 1019.7
20260830143302 54 210 2.0 4.0 0.00 0.00 0.00 86 1019.7
20260830142807 54 254 2.0 4.0 0.00 0.00 0.00 86 1019.7
20260830142610 54 229 2.0 4.0 0.00 0.00 0.00 86 1019.5
20260830141807 54 265 2.0 4.0 0.00 0.00 0.00 86 1019.5
20260830141301 54 206 2.0 4.0 0.00 0.00 0.00 87 1019.5
20260830140801 54 248 2.0 4.0 0.00 0.00 0.00 87 1019.2
20260830140301 54 242 2.0 4.0 0.00 0.00 0.00 87 1019.2
20260830135802 54 241 2.0 4.0 0.00 0.00 0.00 87 1019.2
20260830135306 54 258 3.0 4.0 0.00 0.00 0.00 87 1019.1
20260830134807 54 259 3.0 4.0 0.00 0.00 0.00 87 1019.1
20260830134306 54 265 2.0 4.0 0.00 0.00 0.00 87 1019.1
20260830133811 54 259 2.0 4.0 0.00 0.00 0.00 87 1019.1
20260830133310 54 213 1.0 3.0 0.00 0.00 0.00 86 1019.1
20260830132805 54 247 1.0 3.0 0.00 0.00 0.00 86 1019.1
20260830132305 54 231 2.0 3.0 0.00 0.00 0.00 86 1019.1
20260830132107 54 187 2.0 4.0 0.00 0.00 0.00 87 1019.1
20260830131313 54 212 2.0 4.0 0.00 0.00 0.00 87 1019.1
20260830131116 54 240 2.0 4.0 0.00 0.00 0.00 87 1019.1
20260830130256 54 244 3.0 4.0 0.00 0.00 0.00 87 1019.1
20260830125745 54 255 3.0 5.0 0.00 0.00 0.00 87 1019.1
20260830125547 54 238 3.0 5.0 0.00 0.01 0.00 87 1019.1
20260830125110 54 235 3.0 5.0 0.00 0.01 0.00 86 1019.1
20260830124546 54 226 3.0 5.0 0.00 0.02 0.00 87 1019.1
20260830123738 54 212 3.0 5.0 0.00 0.05 0.00 87 1019.1
20260830123237 54 237 3.0 5.0 0.00 0.06 0.00 86 1019.1
20260830123052 54 228 2.0 5.0 0.00 0.06 0.00 86 1019.1
20260830122320 54 233 1.0 4.0 0.00 0.07 0.00 86 1019.1
20260830121527 54 187 2.0 4.0 0.00 0.08 0.00 86 1019.1
20260830120735 54 229 2.0 4.0 0.00 0.08 0.00 87 1019.1
20260830120236 54 186 2.0 4.0 0.00 0.08 0.00 87 1019.1
20260830115731 54 187 3.0 5.0 0.00 0.10 0.00 87 1019.1
20260830115234 54 229 2.0 5.0 0.00 0.11 0.00 87 1019.1
20260830114730 54 218 2.0 4.0 0.00 0.11 0.00 87 1019.1
20260830114230 54 222 2.0 5.0 0.00 0.11 0.00 87 1019.1
20260830113724 54 223 3.0 6.0 0.00 0.11 0.00 87 1019.1
20260830113222 54 211 4.0 7.0 0.00 0.11 0.00 87 1019.1
20260830112714 54 212 4.0 7.0 0.00 0.11 0.00 87 1019.1
20260830112213 54 199 4.0 7.0 0.00 0.11 0.00 87 1019.0
20260830111709 54 208 3.0 7.0 0.00 0.11 0.00 87 1019.0
20260830111213 54 225 3.0 6.0 0.00 0.11 0.00 86 1019.0
20260830110707 54 185 3.0 6.0 0.00 0.11 0.00 86 1019.0
20260830110503 54 217 3.0 5.0 0.00 0.11 0.00 86 1019.0
20260830105707 54 208 3.0 5.0 0.00 0.11 0.00 86 1019.0
20260830105207 54 174 3.0 5.0 0.00 0.11 0.00 85 1019.0
20260830104703 54 165 2.0 4.0 0.00 0.11 0.00 85 1019.0
20260830104207 54 164 2.0 4.0 0.00 0.11 0.00 85 1019.0
20260830103707 54 161 2.0 4.0 0.00 0.11 0.00 86 1018.9
20260830103209 54 208 3.0 6.0 0.00 0.11 0.00 86 1018.9
20260830102711 54 164 4.0 6.0 0.00 0.11 0.00 86 1018.9
20260830102202 54 204 4.0 9.0 0.00 0.11 0.00 86 1018.8
20260830101704 54 222 5.0 9.0 0.00 0.11 0.00 85 1018.8
20260830101514 55 201 4.0 6.0 0.00 0.11 0.00 86 1018.8
20260830100702 55 209 3.0 7.0 0.00 0.11 0.00 85 1018.7
20260830100204 55 206 3.0 7.0 0.00 0.11 0.00 85 1018.7
20260830095704 55 222 3.0 5.0 0.00 0.11 0.00 85 1018.7
20260830095203 54 192 2.0 4.0 0.00 0.11 0.00 85 1018.7
20260830094715 55 160 2.0 4.0 0.00 0.11 0.00 85 1018.7
20260830094158 55 234 2.0 4.0 0.00 0.11 0.00 85 1018.7
20260830093659 55 215 2.0 4.0 0.00 0.11 0.00 85 1018.7
20260830093200 55 199 2.0 5.0 0.00 0.11 0.00 85 1018.7
20260830092659 55 222 3.0 6.0 0.00 0.11 0.00 85 1018.7
20260830092156 55 193 3.0 6.0 0.00 0.11 0.00 84 1018.8
20260830091655 55 169 3.0 6.0 0.00 0.11 0.00 84 1018.8
20260830091201 55 198 3.0 6.0 0.00 0.11 0.00 84 1018.8
20260830090653 55 171 2.0 4.0 0.00 0.11 0.00 83 1018.7
20260830090449 55 197 3.0 6.0 0.00 0.11 0.00 83 1018.7
20260830085647 55 168 4.0 6.0 0.00 0.11 0.00 83 1018.7
20260830085436 55 210 3.0 6.0 0.00 0.11 0.00 83 1018.7
20260830084950 55 185 3.0 6.0 0.00 0.11 0.00 82 1018.7
20260830084139 55 164 3.0 6.0 0.00 0.11 0.00 83 1018.8
20260830083640 56 188 3.0 5.0 0.00 0.11 0.00 83 1018.8
20260830083141 56 214 3.0 5.0 0.00 0.11 0.00 83 1018.8
20260830082639 55 178 3.0 5.0 0.00 0.11 0.00 82 1018.9
20260830082135 55 204 3.0 5.0 0.00 0.11 0.00 82 1018.9
20260830081924 55 177 2.0 5.0 0.00 0.11 0.00 82 1018.9
20260830081131 55 179 1.0 3.0 0.00 0.11 0.00 82 1018.8
20260830080924 55 198 1.0 2.0 0.00 0.11 0.00 82 1018.8
20260830080118 56 176 1.0 2.0 0.00 0.11 0.00 82 1018.8
20260830075615 56 192 1.0 3.0 0.00 0.11 0.00 82 1018.8
20260830075406 56 186 2.0 4.0 0.00 0.11 0.00 82 1018.8
20260830074606 56 238 2.0 5.0 0.00 0.11 0.00 82 1018.8
20260830074103 56 233 2.0 5.0 0.00 0.11 0.00 82 1018.7
20260830073604 56 257 2.0 3.0 0.00 0.11 0.00 81 1018.7
20260830073105 56 248 2.0 5.0 0.00 0.11 0.00 81 1018.7
20260830072603 56 173 2.0 5.0 0.00 0.11 0.00 80 1018.6
20260830072412 56 232 3.0 6.0 0.00 0.11 0.00 80 1018.6
20260830071601 56 187 3.0 6.0 0.00 0.11 0.00 79 1018.6
20260830071103 56 157 3.0 5.0 0.00 0.11 0.00 79 1018.6
20260830070551 56 177 3.0 5.0 0.00 0.11 0.00 79 1018.6
20260830070049 56 145 3.0 5.0 0.00 0.11 0.00 79 1018.6
20260830065541 57 182 3.0 6.0 0.00 0.11 0.11 79 1018.7
20260830065041 57 214 2.0 6.0 0.00 0.11 0.11 78 1018.7
20260830064541 57 226 1.0 3.0 0.00 0.11 0.11 78 1018.7
20260830064040 57 220 2.0 4.0 0.00 0.11 0.11 77 1018.6
20260830063536 57 192 3.0 10.0 0.00 0.11 0.11 77 1018.6
20260830063033 57 188 4.0 10.0 0.00 0.11 0.11 76 1018.6
20260830062532 58 182 3.0 7.0 0.00 0.11 0.11 76 1018.6
20260830062031 58 206 3.0 7.0 0.00 0.11 0.11 76 1018.6
20260830061530 58 197 4.0 7.0 0.00 0.11 0.11 75 1018.6
20260830061118 58 200 4.0 8.0 0.00 0.11 0.11 76 1018.6
20260830060033 58 233 3.0 7.0 0.00 0.11 0.11 73 1018.6
20260830055536 58 219 3.0 5.0 0.00 0.11 0.11 74 1018.6
20260830055034 58 231 3.0 6.0 0.00 0.11 0.11 75 1018.6
20260830054531 58 233 3.0 6.0 0.00 0.11 0.11 74 1018.6
20260830054034 59 266 3.0 6.0 0.00 0.11 0.11 72 1018.7